Location: Pel�-Koumbol�
(14.9505°N, 3.0798°W)
Time: 14:04:34
(UTC+00:00)

Delta 142 - Pass Details

Date: 17 February 2020
Orbit: 548 x 1589 km, 28.4° (Epoch: 29 March)

Event Time Altitude Azimuth Distance (km) Brightness Sun altitude
Exits shadow 04:57:33 52° 338° (NNW) 924 4.2 -24.3°
Maximum altitude 04:58:32 62° 25° (NNE) 862 4.2 -24.1°
Drops below altitude 10° 05:04:43 10° 106° (ESE) 2,665 7.9 -22.6°
Sets 05:07:47 0° 109° (ESE) 3,798 9.0 -21.8°
